Location: Unspecified
(0.0000°N, 0.0000°E)
Time: 07:26:41
(UTC+00:00)

Tiangong 2 - Pass Details

Date: 14 December 2018
Orbit: 382 x 392 km, 42.8° (Epoch: 11 December)

Event Time Altitude Azimuth Distance (km) Brightness Sun altitude
Exits shadow 05:17:14 - 332° (NNW) 1,669 3.8 -8.6°
Reaches altitude 10° 05:17:55 10° 336° (NNW) 1,401 3.5 -8.4°
Maximum altitude 05:20:52 36° 45° (NE) 627 2.4 -7.7°
Drops below altitude 10° 05:23:50 10° 114° (ESE) 1,411 5.7 -7.0°
Sets 05:26:01 0° 123° (ESE) 2,269 7.2 -6.5°
